ECMWFNIL_925_temp_132.txt.gz
Temp
18 18 17 17 17 17 16 16 16 15 15 15 15 14 14 14 14 14 14 14 14 14 14 14 14 14 13 13 13 12 12 12 12 12 11 11 10 10 10 10 10 10
17 17 17 17 17 17 16 16 16 15 15 15 15 15 14 14 14 14 14 14 14 14 14 14 14 13 13 13 12 12 12 12 11 11 11 11 10 10 10 10 10 10
17 17 17 17 17 16 16 15 15 15 15 15 15 15 15 14 14 14 14 14 14 14 14 14 14 13 13 13 12 12 12 12 11 11 11 10 10 10 10 10 10 9
17 17 17 16 16 16 15 15 15 15 15 15 15 15 14 14 14 14 14 14 14 14 14 14 13 13 13 13 13 12 12 11 11 11 10 10 10 10 9 9 9 9
17 16 16 16 15 15 15 15 15 15 15 15 15 15 14 14 14 14 14 14 14 14 14 14 13 13 13 13 13 12 12 11 11 10 10 10 9 9 9 9 9 9
16 16 16 15 15 15 15 15 15 15 15 15 15 15 14 14 14 14 14 14 14 14 14 14 13 13 13 13 12 12 11 11 10 10 10 9 9 9 9 9 9 9
15 15 15 15 15 15 15 15 15 15 15 15 15 15 14 14 14 14 14 14 14 14 13 13 13 13 13 13 12 12 11 11 10 10 10 9 9 9 9 9 9 9
15 15 15 14 14 14 15 15 15 15 15 14 14 14 14 14 14 14 14 14 14 13 13 13 13 13 13 12 12 11 11 10 10 10 9 9 9 9 9 9 9 9
15 14 14 14 14 14 15 15 14 14 14 14 14 14 14 14 14 14 14 14 14 13 13 13 13 13 12 12 12 11 11 10 10 9 9 9 9 9 9 9 9 9
14 14 14 14 14 14 14 14 14 14 14 14 14 14 14 14 14 14 14 14 13 13 13 13 13 13 12 12 11 11 10 10 10 9 9 9 9 9 9 9 9 9
14 14 14 13 14 14 14 13 13 13 14 14 14 14 14 14 14 14 14 13 13 13 13 13 13 12 12 11 11 11 10 10 9 9 9 9 9 9 9 9 10 9
14 14 13 13 14 14 14 13 13 13 14 14 14 14 14 14 14 13 13 13 13 13 13 12 12 12 12 11 11 11 10 10 9 9 9 8 8 9 9 9 10 10
13 13 13 13 13 14 13 13 13 13 14 14 14 14 14 13 13 13 13 13 13 12 12 12 12 12 11 11 11 11 10 10 9 9 8 8 8 8 9 9 10 10
13 13 13 13 13 13 13 13 13 13 13 13 13 13 13 13 13 13 12 12 12 12 12 12 12 11 11 11 10 10 10 10 9 9 8 8 8 8 9 9 10 10
13 13 13 13 13 13 13 13 13 13 13 13 13 13 13 12 12 12 12 12 12 12 11 11 11 11 11 10 10 10 10 9 9 9 8 8 8 8 9 9 9 9
13 13 13 13 13 13 13 13 13 13 12 12 12 12 12 12 12 12 12 11 11 11 11 11 11 10 10 10 10 10 9 9 9 8 8 8 8 9 9 9 9 9
13 13 13 13 13 13 13 13 12 12 12 12 12 11 11 11 11 11 11 11 11 11 11 10 10 10 10 10 9 9 9 9 8 8 8 8 8 9 9 9 9 9
12 13 13 13 12 12 12 12 12 12 12 12 11 11 10 10 11 11 10 10 11 10 10 10 9 9 9 9 9 9 9 9 8 8 8 8 8 8 9 9 9 9
12 12 12 12 12 12 12 12 12 12 11 11 11 10 10 10 10 10 10 10 10 10 10 9 9 9 9 9 9 9 9 9 8 8 8 8 8 8 8 9 9 9
12 12 12 12 12 12 12 12 12 11 11 11 10 10 10 10 10 10 10 10 10 9 9 9 9 8 9 9 9 9 9 8 8 8 7 8 8 8 8 8 8 9
12 12 12 12 11 11 11 11 11 11 10 10 10 10 10 9 9 10 9 9 9 9 9 9 9 8 8 9 9 8 8 8 8 7 7 7 8 8 8 8 8 9
12 12 12 12 11 11 11 11 11 10 10 10 10 10 9 9 9 9 9 9 9 9 9 9 9 8 8 8 8 8 8 8 8 7 7 7 8 8 8 8 8 9
12 12 12 11 11 11 11 11 11 10 10 10 10 9 9 9 9 9 9 9 9 9 9 9 9 9 8 8 8 8 8 8 7 7 7 7 8 8 8 8 8 8
12 12 11 11 11 11 11 11 10 10 10 10 10 9 8 8 9 9 9 9 9 9 9 9 9 9 8 8 8 8 8 8 7 7 7 7 8 8 8 8 8 8
12 12 11 11 12 11 11 11 10 10 10 9 9 9 8 8 8 8 9 9 9 9 9 9 9 9 9 8 8 8 8 8 8 7 7 7 8 8 8 8 8 8
12 12 11 12 12 11 11 10 10 10 9 9 9 8 8 8 8 8 8 9 9 9 9 10 10 9 9 9 8 8 8 8 8 8 7 7 8 8 8 8 8 8

ECMWFNIL_925_temp_138.txt.gz
Temp
17 16 16 16 16 16 16 16 16 16 16 15 15 14 14 14 13 14 14 13 13 13 13 13 12 12 12 12 12 12 12 12 11 11 11 11 11 11 10 10 10 9
16 16 16 16 16 16 16 16 16 16 15 15 15 14 14 13 13 14 13 13 13 13 12 12 12 12 12 12 12 12 12 11 11 11 11 11 11 11 10 9 9 9
16 16 16 16 17 17 16 16 16 15 15 15 15 14 13 13 13 13 13 13 13 12 12 12 12 12 12 12 12 11 11 11 11 11 11 11 11 10 10 9 9 9
16 16 16 16 17 17 16 16 15 15 15 15 14 14 13 13 13 13 13 13 13 12 12 12 12 12 12 12 11 11 11 11 10 11 11 11 10 10 9 9 9 9
16 16 16 17 17 16 16 16 15 15 15 14 14 14 14 14 13 13 13 13 12 12 12 12 12 12 12 11 11 11 10 10 10 10 11 10 10 9 9 8 8 8
16 16 16 16 16 16 16 15 15 15 15 14 14 14 14 13 13 13 13 12 12 12 12 12 12 12 12 11 11 10 10 10 10 10 10 10 9 9 8 8 8 8
16 16 16 16 16 16 16 15 15 15 14 14 14 14 13 13 13 13 13 12 12 12 12 12 11 11 11 11 11 10 10 10 10 10 10 9 9 8 8 8 8 8
16 16 16 16 16 16 15 15 15 15 14 14 13 13 13 13 13 13 12 12 12 12 12 11 11 11 11 11 11 10 10 10 10 10 9 9 9 8 8 8 8 8
16 15 16 16 15 15 15 15 15 14 14 14 13 13 13 13 13 13 13 12 12 12 11 11 11 11 11 11 11 10 9 9 9 9 9 9 8 8 8 8 8 8
15 15 16 15 15 15 15 15 15 14 14 14 13 13 13 13 13 13 13 12 12 12 11 11 11 11 11 10 10 10 9 9 9 9 9 9 8 8 8 8 8 8
15 15 15 15 15 15 15 14 14 14 14 14 13 13 13 13 13 13 13 13 12 12 12 11 11 11 11 10 10 10 9 9 9 9 9 9 9 9 9 8 8 8
15 15 15 15 15 15 15 14 14 14 14 14 13 13 13 13 13 13 13 13 12 12 12 11 11 11 11 10 10 9 9 9 9 9 9 9 9 9 9 9 9 9
15 15 15 15 15 15 14 14 14 14 14 14 13 13 13 13 13 13 13 13 12 12 12 11 11 11 10 10 10 9 9 9 9 9 9 9 9 9 9 9 9 9
15 15 15 15 14 14 14 13 13 13 13 14 13 13 13 13 13 13 13 12 12 12 11 11 11 11 10 10 10 9 9 9 9 9 9 9 9 9 9 9 9 9
14 14 14 14 14 13 13 13 13 13 13 13 13 13 13 13 13 13 13 12 12 12 11 11 11 11 10 10 10 9 9 9 9 9 9 9 9 9 9 9 9 9
14 14 14 13 13 13 13 13 13 13 13 13 13 13 13 13 13 13 13 12 12 11 11 11 11 10 10 10 10 9 9 9 9 9 9 9 9 9 9 9 9 9
14 14 13 13 13 13 13 13 13 13 13 12 12 12 12 12 12 12 12 12 12 11 11 11 10 10 10 10 9 9 9 9 9 9 9 9 9 9 9 9 9 9
13 13 13 13 13 13 13 13 12 12 12 12 12 12 12 12 12 12 12 12 11 11 11 11 10 10 10 9 9 9 9 9 9 9 9 9 9 9 9 9 9 9
13 13 13 13 13 13 13 12 12 12 12 12 12 12 12 12 12 12 11 11 11 11 11 10 10 10 9 9 9 9 9 9 8 9 9 9 9 9 9 9 9 9
13 13 13 13 12 12 12 12 12 12 12 12 12 12 12 11 11 11 11 11 11 11 10 10 10 9 9 9 9 8 8 8 8 8 9 9 9 9 9 9 9 9
13 13 13 12 12 12 12 11 11 11 11 11 12 12 11 11 11 11 11 10 10 10 10 10 9 9 8 8 8 8 8 8 8 8 8 9 9 9 9 9 9 9
12 13 12 12 11 11 10 10 11 11 11 11 11 11 11 11 10 10 10 10 10 10 10 9 8 8 8 8 8 8 8 8 8 8 8 8 8 8 9 9 9 9
12 12 11 10 10 9 9 9 10 11 11 11 11 10 10 10 10 10 10 10 10 10 10 9 8 8 8 8 8 8 8 8 8 8 8 8 8 8 8 9 9 9
12 12 11 10 9 9 9 10 10 11 11 11 11 11 10 10 10 10 10 10 10 10 10 10 9 8 8 8 8 8 8 8 8 8 8 8 8 8 8 8 9 9
11 11 11 11 11 10 11 11 11 11 11 10 10 10 10 10 10 10 10 10 10 10 10 10 9 8 8 8 8 8 8 8 8 8 8 8 8 8 8 8 8 8
11 11 12 11 10 10 11 11 11 10 10 10 10 10 10 10 10 10 10 9 9 9 9 9 9 8 8 8 8 8 8 8 8 8 8 8 8 8 8 8 8 8

ECMWFNIL_925_temp_141.txt.gz
Temp
18 18 17 17 17 17 17 17 17 16 16 16 15 14 14 13 13 14 14 13 13 13 13 13 13 13 12 12 12 12 12 12 12 12 12 11 10 10 10 10 9 9
17 17 17 17 16 16 16 17 17 16 16 15 15 14 14 13 14 14 13 13 13 13 13 13 13 12 12 12 12 12 12 12 11 11 12 11 10 9 9 9 9 9
17 17 17 17 17 16 16 16 16 16 16 15 15 14 14 13 14 13 13 13 13 12 12 13 13 12 12 12 12 12 12 12 11 11 11 10 9 9 9 9 9 8
16 17 17 16 16 16 16 16 16 16 16 15 14 14 13 13 13 13 13 13 12 12 12 12 12 12 11 11 11 11 11 11 11 11 11 10 9 9 8 8 8 8
16 16 16 16 16 16 16 16 16 16 16 15 14 14 13 13 13 13 13 13 12 12 12 12 12 11 11 11 11 11 11 11 11 11 10 9 8 8 8 8 8 8
16 16 16 16 16 16 16 16 16 16 15 15 14 13 13 13 13 13 13 12 12 12 12 12 12 11 11 11 11 11 11 11 11 11 10 8 8 8 8 8 8 8
16 15 15 15 16 16 16 16 16 16 15 15 14 14 13 13 13 13 13 12 12 12 12 12 12 11 11 11 11 11 11 11 10 10 9 8 8 8 8 8 8 8
15 15 14 15 16 16 16 16 15 15 15 15 14 14 13 13 13 13 12 12 12 12 12 12 11 11 11 11 10 10 10 10 10 10 9 8 8 8 8 8 8 8
14 14 14 15 15 16 16 15 15 15 15 15 14 14 13 13 13 13 12 12 12 12 12 11 11 11 11 10 10 10 10 10 10 9 8 8 8 8 8 8 8 8
14 14 14 15 16 16 16 15 15 15 15 15 14 14 13 13 13 13 12 12 12 12 12 11 11 11 11 10 10 10 10 10 10 9 8 8 8 8 8 8 8 8
14 14 15 15 16 16 15 15 15 15 15 15 14 14 13 13 13 13 12 12 12 12 11 11 11 11 10 10 10 10 10 10 9 9 8 8 8 8 8 8 8 8
14 14 15 15 15 15 15 15 15 15 15 14 14 14 13 13 13 13 12 12 12 12 12 11 11 11 10 10 10 10 10 10 9 9 8 8 8 8 8 8 8 8
14 14 15 15 15 15 15 15 15 15 15 14 14 14 13 13 13 12 12 12 12 12 12 11 11 11 10 10 10 10 9 9 9 9 9 8 8 8 8 8 8 8
14 14 15 15 15 15 15 15 15 15 14 14 14 14 13 13 13 12 12 12 12 12 11 11 11 10 10 10 10 9 9 9 9 9 9 9 9 9 8 8 8 8
14 15 15 15 15 14 15 15 14 14 14 13 13 13 13 13 13 13 12 12 12 11 11 11 11 11 10 10 10 9 9 9 9 9 9 9 9 9 9 9 8 8
14 14 14 14 14 14 14 14 14 14 13 13 13 13 13 13 13 13 12 12 12 11 11 11 11 11 10 10 10 10 9 9 9 9 9 9 9 9 9 9 9 9
14 14 14 14 14 14 14 14 14 13 13 13 13 13 13 13 13 13 12 12 12 11 11 11 11 11 10 10 10 10 9 9 9 9 9 9 9 9 9 9 9 9
13 13 13 14 14 14 14 14 14 13 13 13 12 12 13 12 13 13 12 12 12 11 11 11 11 10 10 10 10 9 9 9 9 9 9 9 9 9 9 9 9 9
13 13 13 13 14 14 14 14 13 13 12 12 12 12 12 12 12 12 12 12 12 11 11 11 10 10 10 9 9 9 9 9 9 9 9 9 9 9 9 9 9 9
13 13 13 13 13 13 13 13 13 12 11 11 11 11 12 12 12 12 12 12 11 11 11 11 10 10 9 9 9 9 9 9 9 9 9 9 9 9 9 9 9 9
13 13 13 13 13 13 13 13 12 12 11 11 11 11 12 12 12 12 12 11 11 11 11 11 10 10 9 9 9 9 9 9 9 9 9 9 9 9 9 9 9 9
13 13 13 12 12 12 12 12 12 11 11 11 11 12 12 12 12 12 12 11 11 11 11 10 10 9 9 9 9 9 8 8 8 9 9 9 9 9 9 9 9 9
13 13 12 12 12 12 12 12 12 11 11 11 12 12 12 12 12 12 11 11 11 11 10 10 10 9 9 9 8 8 8 8 8 8 9 9 9 9 9 9 9 9
13 12 13 13 12 12 12 11 11 11 11 12 12 12 12 12 12 11 11 11 11 10 10 10 10 9 9 8 8 8 8 8 8 8 8 8 8 9 9 9 9 9
12 12 12 12 11 11 12 12 11 11 12 12 12 12 12 11 11 10 10 10 10 10 10 10 9 9 8 8 8 8 8 8 8 8 8 8 8 8 8 9 9 9
12 13 12 11 12 12 12 11 12 12 12 11 11 11 11 11 10 10 10 10 10 10 9 9 9 9 8 8 8 8 8 8 8 8 8 8 8 8 8 8 8 9

ECMWFNIL_925_temp_144.txt.gz
Temp
17 17 17 17 17 18 18 18 18 17 17 17 17 17 17 16 15 15 15 15 15 14 13 13 13 13 13 12 13 13 13 12 12 12 12 12 12 11 11 11 12 12
17 17 17 17 17 17 17 17 17 17 17 17 17 17 16 15 15 15 15 15 14 13 13 13 13 13 13 12 12 13 12 12 12 12 12 12 11 11 11 11 11 12
17 17 17 17 17 17 17 17 17 17 17 17 17 16 16 15 15 15 15 14 14 13 13 13 13 12 12 12 12 12 12 12 12 12 12 11 11 11 11 11 11 11
16 17 17 16 17 17 17 17 17 17 17 17 16 16 15 15 15 15 14 14 13 13 13 12 12 12 12 12 12 12 12 12 12 12 12 11 11 11 11 11 11 11
16 16 16 16 16 16 16 16 17 17 17 17 16 15 15 15 15 15 14 14 13 13 13 12 12 12 12 12 12 12 12 12 12 12 12 11 11 11 11 11 11 11
16 16 16 16 16 16 16 16 17 17 17 16 16 15 15 15 15 15 14 14 13 13 13 13 12 12 12 12 12 12 12 12 12 12 11 11 11 11 11 11 11 11
16 17 16 16 16 16 16 17 17 17 17 16 16 15 15 15 15 15 14 14 14 13 13 13 12 12 12 12 12 12 12 12 12 12 11 11 11 11 11 11 11 11
17 17 16 16 16 16 17 17 17 17 16 16 16 15 15 15 15 14 14 14 14 13 13 13 13 12 12 12 12 12 11 12 12 12 11 11 11 11 11 11 11 11
17 16 16 16 16 16 17 17 16 16 16 16 16 15 15 15 15 14 14 14 14 14 13 13 13 12 12 12 12 12 12 12 12 11 11 11 11 11 11 11 11 11
16 16 16 16 16 16 17 16 16 15 15 16 16 15 15 15 15 14 14 14 14 14 13 13 13 12 12 12 12 12 12 12 12 11 11 11 11 11 11 11 11 11
16 15 16 16 16 16 16 16 16 15 15 15 15 16 15 15 15 14 14 14 14 14 13 13 13 12 12 12 12 12 12 12 12 11 11 11 11 11 11 11 11 11
16 16 16 16 16 16 16 16 15 15 15 15 15 15 15 15 14 14 14 14 14 14 13 13 13 12 12 12 12 12 12 12 11 11 11 11 11 11 11 11 11 11
16 16 16 16 16 16 16 15 15 15 15 15 15 14 15 15 15 14 14 14 14 14 13 13 13 12 12 12 12 12 12 11 11 11 11 11 11 11 11 11 11 11
15 16 16 16 16 16 16 15 15 15 15 15 14 14 14 15 15 14 14 14 14 14 13 13 12 12 12 12 12 12 11 11 11 11 11 11 11 11 11 11 11 10
15 16 16 15 16 16 15 15 15 15 15 15 14 14 14 15 15 15 14 14 14 13 13 12 12 12 12 12 12 12 11 11 11 11 11 11 11 11 11 11 11 10
16 16 15 16 16 16 15 15 15 15 15 15 14 14 14 14 15 15 14 14 14 13 13 12 12 12 11 11 12 11 11 11 11 11 11 11 11 11 11 11 10 10
16 15 15 15 15 15 15 15 15 15 14 14 14 13 13 14 15 15 14 14 14 13 12 12 12 12 11 11 11 11 11 11 11 11 11 11 11 11 11 11 10 10
16 15 15 15 14 14 15 15 15 15 14 13 13 13 13 13 14 14 14 14 14 13 12 12 12 11 11 11 10 10 11 11 11 11 11 11 11 11 11 11 11 10
15 15 15 15 14 14 15 15 14 14 13 13 13 13 13 13 14 14 14 14 13 13 13 12 11 11 11 10 10 10 10 11 11 11 11 11 11 11 11 11 11 10
15 15 15 14 14 14 14 14 13 13 13 13 13 13 13 13 13 14 13 13 13 13 13 12 11 11 11 10 10 10 10 11 11 11 11 11 11 11 11 11 11 11
14 14 14 14 14 13 13 13 13 13 13 12 12 12 12 13 13 13 13 13 13 13 13 12 11 11 11 10 10 10 10 10 11 11 11 11 11 11 11 11 11 11
14 14 14 14 13 13 13 13 13 13 13 12 12 12 12 12 13 13 13 13 13 13 12 11 11 11 10 10 10 9 9 10 11 11 11 11 11 11 11 11 10 10
14 14 13 13 14 13 13 13 13 12 13 13 12 12 12 12 12 12 13 12 12 12 12 11 11 11 10 10 10 9 9 10 11 11 11 11 11 10 10 10 10 10
14 14 13 13 14 14 13 13 12 12 13 12 12 12 12 12 12 12 12 12 12 12 11 11 11 11 10 10 9 9 9 10 11 11 11 11 11 10 10 10 10 10
14 14 14 14 13 13 13 12 12 12 13 12 12 12 12 12 12 12 12 12 11 11 11 11 11 11 10 9 9 9 9 10 11 12 11 11 11 11 11 11 10 9
13 14 15 14 13 13 12 12 12 12 13 12 11 11 11 11 11 11 11 11 11 11 10 10 10 11 10 9 9 9 9 10 11 12 11 11 11 11 11 11 10 9